Погода в Благоевом

Россия / Республика Коми     63°25′34″N   47°56′56″E
темп.,
°C
ветер,
м/с
пор.,
м/с
влажн.,
%
обл.,
%
осадки,
мм/ч
давл.,
гПа
погр.,
м
8 августа, пн
пн800:00+16зсз279772 0.9 1015330
03:00+13з279492 0.9 1017245
06:00+14з3793100 0.0 1018371
09:00+18з355196 0.0 10191282
12:00+21з3539100 0.0 10201892
15:00+22з453417 0.0 10202260
18:00+20зсз3642100 0.0 1020751
21:00+14ссз1263100 0.0 102222
9 августа, вт
вт900:00+13зсз1167100 0.0 102311
03:00+13ссз116597 0.0 102413
06:00+14с126474 0.0 1025117
09:00+18ссз125019 0.0 1025803
12:00+22сз223545 0.0 10242353
15:00+22сз323273 0.0 10232444
18:00+19ссв364477 0.0 1024544
21:00+13св27675 0.0 1024133
10 августа, ср
ср1000:00+11св237280 0.0 102459
03:00+10ссв23769 0.0 102548
06:00+13ссв24611 0.0 1024167
09:00+19ссв34398 0.0 10231070
12:00+22ссв22315 0.0 10222063
15:00+22с333016 0.0 10202471
18:00+20св234341 0.0 1020151
21:00+16с2757100 0.0 1020179
11 августа, чт
чт1100:00+15ссз245998 0.0 1020103
03:00+12сз227173 0.0 101920
06:00+15з2462100 0.0 1019152
09:00+20з24488 0.0 1018954
12:00+23з463314 0.0 10162452
15:00+23з473222 0.0 10142528
18:00+19з3852100 0.0 1014502
21:00+14юз31195100 0.7 1014592
12 августа, пт
пт1200:00+14юз3119699 1.0 1012469
03:00+13юз31095100 1.8 1011471
06:00+14юз41096100 0.3 1009593
09:00+15з499151 0.4 1009829
12:00+21сз594480 0.8 10082257
15:00+19зсз595031 0.8 10101507
18:00+17зсз385641 0.0 10111319
21:00+12з28851 0.1 1012186